| time (UTC) | temp F | wind direction | speed MPH | gust MPH | rain 1hr in | rain 24hr in | rain mn in | humidity % | barometer mb |
| 20260504224556 | 74 | 204 | 1.0 | 14.0 | 0.00 | 0.00 | 0.00 | 46 | 999.8 |
| 20260504223120 | 74 | 276 | 6.0 | 15.0 | 0.00 | 0.00 | 0.00 | 44 | 999.7 |
| 20260504221600 | 74 | 264 | 2.0 | 10.0 | 0.00 | 0.00 | 0.00 | 47 | 999.9 |
| 20260504214600 | 74 | 236 | 3.0 | 15.0 | 0.00 | 0.00 | 0.00 | 46 | 1000.5 |
| 20260504213109 | 75 | 300 | 3.0 | 16.0 | 0.00 | 0.00 | 0.00 | 43 | 1000.5 |
| 20260504211651 | 76 | 214 | 3.0 | 14.0 | 0.00 | 0.00 | 0.00 | 40 | 1000.7 |
| 20260504210058 | 75 | 200 | 4.0 | 16.0 | 0.00 | 0.00 | 0.00 | 38 | 1000.8 |
| 20260504204604 | 74 | 229 | 4.0 | 18.0 | 0.00 | 0.00 | 0.00 | 37 | 1000.9 |
| 20260504203108 | 75 | 208 | 4.0 | 13.0 | 0.00 | 0.00 | 0.00 | 35 | 1001.0 |
| 20260504201611 | 76 | 240 | 3.0 | 19.0 | 0.00 | 0.00 | 0.00 | 33 | 1001.0 |
| 20260504200057 | 77 | 157 | 4.0 | 9.0 | 0.00 | 0.00 | 0.00 | 33 | 1001.2 |
| 20260504194558 | 77 | 272 | 3.0 | 12.0 | 0.00 | 0.00 | 0.00 | 36 | 1001.2 |
| 20260504193107 | 77 | 236 | 5.0 | 12.0 | 0.00 | 0.00 | 0.00 | 32 | 1001.5 |
| 20260504191611 | 76 | 192 | 5.0 | 20.0 | 0.00 | 0.00 | 0.00 | 34 | 1001.5 |
| 20260504190109 | 77 | 302 | 7.0 | 15.0 | 0.00 | 0.00 | 0.00 | 33 | 1001.7 |
| 20260504184556 | 76 | 246 | 4.0 | 19.0 | 0.00 | 0.00 | 0.00 | 32 | 1001.9 |
| 20260504183056 | 76 | 156 | 4.0 | 22.0 | 0.00 | 0.00 | 0.00 | 30 | 1002.1 |
| 20260504181603 | 76 | 255 | 8.0 | 14.0 | 0.00 | 0.00 | 0.00 | 29 | 1002.3 |
| 20260504180057 | 76 | 92 | 4.0 | 13.0 | 0.00 | 0.00 | 0.00 | 31 | 1002.4 |
| 20260504174557 | 75 | 210 | 4.0 | 18.0 | 0.00 | 0.00 | 0.00 | 31 | 1002.5 |
| 20260504173057 | 75 | 188 | 4.0 | 12.0 | 0.00 | 0.00 | 0.00 | 33 | 1002.8 |
| 20260504171556 | 74 | 156 | 4.0 | 18.0 | 0.00 | 0.00 | 0.00 | 38 | 1003.0 |
| 20260504120108 | 49 | 254 | 2.0 | 8.0 | 0.00 | 0.00 | 0.00 | 82 | 1005.7 |
| 20260504081609 | 47 | 173 | 1.0 | 4.0 | 0.00 | 0.00 | 0.00 | 78 | 1006.1 |
| 20260504050104 | 50 | 199 | 3.0 | 10.0 | 0.00 | 0.00 | 0.00 | 70 | 1008.4 |
| 20260504044556 | 50 | 178 | 1.0 | 9.0 | 0.00 | 0.00 | 0.00 | 69 | 1008.5 |
| 20260504043104 | 50 | 219 | 2.0 | 7.0 | 0.00 | 0.00 | 0.00 | 69 | 1008.5 |
| 20260504041558 | 50 | 360 | 2.0 | 8.0 | 0.00 | 0.00 | 0.00 | 69 | 1008.7 |
| 20260504040132 | 50 | 360 | 3.0 | 15.0 | 0.00 | 0.00 | 0.00 | 69 | 1008.8 |
| 20260504034601 | 50 | 139 | 4.0 | 12.0 | 0.00 | 0.00 | 0.00 | 69 | 1008.9 |
| 20260504033056 | 50 | 191 | 3.0 | 11.0 | 0.00 | 0.00 | 0.00 | 68 | 1009.1 |
| 20260504031623 | 51 | 205 | 3.0 | 9.0 | 0.00 | 0.00 | 0.00 | 67 | 1009.1 |
| 20260504030058 | 51 | 360 | 2.0 | 12.0 | 0.00 | 0.00 | 0.00 | 68 | 1009.4 |
| 20260504024603 | 50 | 360 | 3.0 | 10.0 | 0.00 | 0.00 | 0.00 | 69 | 1009.4 |
| 20260504023058 | 50 | 142 | 4.0 | 9.0 | 0.00 | 0.00 | 0.00 | 69 | 1009.4 |
| 20260504021600 | 50 | 154 | 2.0 | 8.0 | 0.00 | 0.00 | 0.00 | 68 | 1009.5 |
| 20260504020112 | 51 | 360 | 2.0 | 6.0 | 0.00 | 0.00 | 0.00 | 67 | 1009.5 |
| 20260504014603 | 51 | 0 | 1.0 | 10.0 | 0.00 | 0.00 | 0.00 | 67 | 1009.6 |
| 20260504013103 | 52 | 168 | 2.0 | 8.0 | 0.00 | 0.00 | 0.00 | 66 | 1009.5 |